CDT,Max TemperatureF,Mean TemperatureF,Min TemperatureF,Max Dew PointF,MeanDew PointF,Min DewpointF,Max Humidity, Mean Humidity, Min Humidity, Max Sea Level PressureIn, Mean Sea Level PressureIn, Min Sea Level PressureIn, Max VisibilityMiles, Mean VisibilityMiles, Min VisibilityMiles, Max Wind SpeedMPH, Mean Wind SpeedMPH, Max Gust SpeedMPH,PrecipitationIn, CloudCover, Events, WindDirDegrees
2013-9-1,84,74,63,72,67,61,100,74,48,29.96,29.84,29.75,10,5,0,32,8,41,0.95,3,Fog-Rain-Thunderstorm,337
2013-9-2,80,69,58,62,60,57,97,73,48,30.06,30.01,29.96,10,10,10,12,5,17,0.01,0,,345
2013-9-3,85,68,51,64,55,50,100,70,40,30.11,30.06,30.03,10,7,0,8,1,15,0.00,2,Fog,354
2013-9-4,87,72,57,67,59,55,100,71,42,30.17,30.11,30.06,10,7,0,7,1,63,0.00,1,Fog,241
2013-9-5,87,72,57,65,59,55,100,67,34,30.20,30.14,30.10,10,7,0,13,3,16,0.00,1,Fog,127
2013-9-6,90,77,63,66,64,61,87,66,44,30.12,30.05,29.96,10,10,10,14,6,20,0.00,0,,170
2013-9-7,98,84,69,72,68,64,84,60,35,29.97,29.90,29.81,10,10,10,17,6,22,0.00,0,,201
2013-9-8,95,82,69,71,68,61,100,75,49,29.90,29.84,29.76,10,8,2,45,4,56,0.01,1,Rain-Thunderstorm,181
2013-9-9,97,84,70,67,64,59,79,55,31,29.91,29.85,29.82,10,10,10,21,9,26,0.00,0,,200
2013-9-10,97,81,64,66,64,60,87,60,33,30.03,29.97,29.91,10,10,10,21,9,26,0.00,0,,195
2013-9-11,93,80,67,72,67,62,93,67,41,30.08,30.05,30.01,10,10,6,20,6,25,0.06,3,Rain-Thunderstorm,282
2013-9-12,84,72,59,71,65,50,100,70,39,30.16,30.12,30.07,10,8,1,15,6,20,0.46,3,Rain-Thunderstorm,352
2013-9-13,76,64,51,52,50,46,96,67,38,30.21,30.15,30.07,10,9,0,13,4,18,0.00,0,,39
2013-9-14,78,63,47,53,49,45,86,61,35,30.12,30.03,29.94,10,10,10,17,7,23,0.00,0,,165
2013-9-15,72,67,62,67,60,52,93,76,58,30.18,30.01,29.89,10,8,1,20,8,24,0.46,7,Rain-Thunderstorm,279
2013-9-16,64,61,58,58,56,54,93,83,73,30.30,30.23,30.18,10,10,7,16,7,21,0.08,8,Rain,89
2013-9-17,79,70,61,67,63,58,97,82,67,30.19,30.07,29.95,10,8,1,18,9,23,0.27,6,Rain-Thunderstorm,149
2013-9-18,90,78,66,69,67,64,93,72,50,29.96,29.85,29.76,10,8,4,24,12,31,0.00,1,,179
2013-9-19,93,79,64,70,67,62,97,71,44,29.94,29.82,29.69,10,8,0,38,12,44,1.19,4,Fog-Rain-Thunderstorm,256
2013-9-20,71,60,48,58,51,47,93,69,44,30.06,30.00,29.92,10,10,10,20,8,24,0.00,1,,323
2013-9-21,75,59,42,54,46,42,100,67,33,30.06,30.00,29.91,10,5,0,8,1,12,0.00,2,Fog,78
2013-9-22,78,64,49,53,51,47,93,67,40,29.98,29.91,29.86,10,10,10,16,8,21,0.00,0,,149
2013-9-23,77,63,49,54,51,48,89,65,41,29.92,29.85,29.76,10,10,9,24,12,30,0.00,0,,144
2013-9-24,76,66,56,59,56,54,93,77,61,29.87,29.80,29.74,10,10,9,15,5,18,0.00,4,,192
2013-9-25,80,66,52,61,56,52,100,75,49,29.91,29.87,29.80,10,6,0,14,6,16,0.00,0,Fog,78
2013-9-26,85,71,56,61,59,53,93,67,40,29.90,29.85,29.81,10,10,7,23,12,28,0.00,0,,145
2013-9-27,87,77,67,62,61,59,81,62,42,29.94,29.88,29.82,10,10,10,23,13,30,0.00,0,,157
2013-9-28,74,60,45,65,56,44,93,74,55,30.09,29.92,29.76,10,9,5,24,8,32,0.07,5,Rain,273
2013-9-29,75,59,42,52,45,41,100,67,33,30.12,30.06,29.94,10,4,0,13,4,21,0.00,1,Fog,154
2013-9-30,80,61,41,58,47,41,100,66,32,29.95,29.89,29.80,10,6,0,16,6,41,0.00,0,Fog,190